Location: Flitcham
(52.8000°N, 0.5667°E)
Time: 20:48:01
(UTC+00:00)

Helios 1B rocket - Pass Details

Date: 15 May 2026
Orbit: 459 x 466 km, 98.2° (Epoch: 7 June)

Event Time Altitude Azimuth Distance (km) Brightness Sun altitude
Exits shadow 22:59:17 37° 206° (SSW) 757 2.6 -17.2°
Maximum altitude 23:00:19 52° 258° (WSW) 597 2.4 -17.2°
Drops below altitude 10° 23:03:47 10° 336° (NNW) 1,644 6.0 -17.3°
Sets 23:05:53 0° 342° (NNW) 2,525 7.4 -17.4°
